CAPE
0 0 0 0 0 0 0 0 0 0 0 0 0 0 0 0 0 6 9 0 1 41 83 170 331 462 533 497 265 142 425 358 369 265 152 43 9 0 0 7 6 4 6
0 0 0 0 0 0 0 0 0 0 0 0 0 0 0 0 0 0 0 14 29 19 36 106 180 324 537 599 463 360 319 332 445 456 360 218 126 38 14 24 34 40 4
0 0 0 0 0 0 0 0 0 0 0 0 0 0 0 0 0 0 25 24 11 0 1 22 130 189 192 190 217 119 32 42 353 371 133 301 215 137 142 142 105 35 19
0 0 0 0 0 0 0 0 0 0 0 0 0 0 0 0 0 15 1 0 0 0 1 4 4 3 53 62 58 54 6 10 10 18 16 17 34 49 54 0 1 4 198
0 0 0 0 0 0 0 0 0 0 0 0 0 0 0 0 0 1 0 0 0 0 0 0 0 1 3 5 7 26 65 30 0 17 29 64 57 63 28 43 51 1 0
0 0 0 0 0 0 0 0 0 0 0 0 0 0 0 0 3 0 0 0 0 0 0 0 0 2 1 0 0 2 6 2 43 6 36 45 82 55 49 25 78 81 53
0 0 0 0 0 0 0 0 0 0 0 0 0 0 0 0 0 0 0 0 0 0 0 0 0 0 0 0 0 0 0 0 3 5 8 18 4 1 35 61 96 61 64
0 0 0 0 0 0 0 0 0 0 0 0 0 0 0 0 0 0 0 0 0 0 0 0 0 0 0 0 0 0 0 0 0 0 0 0 0 5 40 29 37 26 0
0 0 0 0 0 0 0 0 0 0 0 0 0 0 0 0 0 0 0 0 0 0 0 0 0 0 0 0 0 0 0 0 0 1 1 2 13 6 17 12 21 11 5
0 0 0 0 0 0 0 0 0 0 0 0 0 0 0 0 0 0 0 0 0 0 0 0 0 0 0 0 0 0 0 0 0 1 3 6 1 3 2 2 3 18 20
0 0 0 0 0 0 0 0 0 0 0 0 0 0 0 0 0 0 0 0 0 0 0 0 0 0 0 0 0 0 0 0 0 0 5 8 9 5 1 0 1 1 5
0 0 0 0 0 0 0 0 0 0 0 0 0 0 0 0 0 0 0 0 0 0 0 0 0 0 0 0 0 0 0 0 0 0 2 8 6 2 1 2 1 1 0
0 0 0 0 0 0 0 0 0 0 0 0 0 0 0 0 0 0 0 0 0 0 0 0 0 0 0 0 0 0 0 0 0 1 3 3 3 3 2 2 2 3 1
0 0 0 0 0 0 0 0 0 0 0 0 0 0 0 0 0 0 0 0 0 0 0 0 0 0 0 0 0 0 0 0 0 0 0 2 2 1 1 2 4 2 2
0 0 0 0 0 0 0 0 0 0 0 0 0 0 0 0 0 0 0 0 0 0 0 0 0 0 0 0 0 0 0 0 0 0 0 0 0 1 1 0 2 1 1
0 0 0 0 0 0 0 0 0 0 0 0 0 0 0 0 0 0 0 0 0 0 0 0 0 0 0 0 0 0 0 0 0 0 0 0 2 0 1 4 4 2 1
0 0 0 0 0 0 0 0 0 0 0 0 0 0 0 0 0 0 0 0 0 0 0 0 0 0 0 0 0 0 0 0 0 0 0 0 0 0 3 5 3 0 0
0 0 0 0 0 0 0 0 0 0 0 0 0 0 0 0 0 0 0 0 0 0 0 0 0 0 0 0 0 0 0 0 0 0 0 0 0 0 1 1 0 0 0
0 0 0 0 0 0 0 0 0 0 0 0 0 0 0 0 0 0 0 0 0 0 0 0 0 0 0 0 0 0 0 0 0 0 0 0 0 0 0 0 0 0 0
0 0 0 0 0 0 0 0 0 0 0 0 0 0 0 0 0 0 0 0 0 0 0 0 0 0 0 0 0 0 0 0 0 0 0 0 0 0 0 0 0 0 0
0 0 0 0 0 0 0 0 0 0 0 0 0 0 0 0 0 0 0 0 0 0 0 0 0 0 0 0 0 0 0 0 0 0 0 0 0 0 0 0 0 0 0
0 0 0 0 0 0 0 0 0 0 0 0 0 0 0 0 0 0 0 0 0 0 0 0 0 0 0 0 0 0 0 0 0 0 0 0 0 0 0 0 0 0 0
0 0 0 0 0 0 0 0 0 0 0 0 0 0 0 0 0 0 0 0 0 0 1 0 0 0 0 0 0 0 0 0 0 0 0 0 0 0 0 0 0 0 0
0 0 0 0 0 0 0 0 0 0 0 0 0 0 0 0 0 0 0 0 0 0 0 0 0 0 0 0 0 0 0 0 1 0 0 0 0 0 0 0 0 0 0
0 0 0 0 0 0 0 0 0 0 0 0 0 0 0 0 0 0 0 0 0 0 0 0 0 3 6 8 9 5 0 0 0 0 0 0 0 0 0 0 0 0 0
0 0 0 0 0 0 0 0 0 0 0 0 0 0 0 0 0 0 0 0 0 0 0 0 0 0 0 0 0 0 0 0 0 0 0 0 0 0 0 0 0 0 0
CIN
0 0 0 0 0 0 0 0 0 0 0 0 0 0 0 0 0 -13 -11 0 -3 -93 -43 -18 -6 0 0 0 -3 -6 0 -1 -1 -2 -4 -4 -7 0 0 0 0 0 0
0 0 0 0 0 0 0 0 0 0 0 0 0 0 0 0 0 0 0 -158 -220 -162 -134 -70 -31 -5 0 0 0 -4 -1 -1 0 0 0 -1 -2 -7 -6 -2 -2 -1 0
0 0 0 0 0 0 0 0 0 0 0 0 0 0 0 0 0 0 -8 -31 -25 0 0 -159 -82 -34 -9 0 -1 -6 -17 -4 0 -1 -3 0 -1 -1 0 0 0 -3 -5
0 0 0 0 0 0 0 0 0 0 0 0 0 0 0 0 -4 -12 -35 0 0 0 0 0 0 0 -85 -62 -1 -10 -19 -8 -47 -5 -2 -65 -5 -4 -3 -10 -19 -8 0
0 0 0 0 0 0 0 0 0 0 0 0 0 0 0 0 0 -18 -31 0 0 0 0 0 0 0 0 0 0 -29 -25 -44 0 -61 -8 0 -1 0 -3 -4 -9 -23 -32
0 0 0 0 0 0 0 0 0 0 0 0 0 0 0 0 -61 0 0 0 0 0 0 0 0 0 0 0 0 0 0 0 -1 0 -7 -7 -1 -6 -1 -4 -6 -2 -7
0 0 0 0 0 0 0 0 0 0 0 0 0 0 0 0 -1 0 0 0 0 0 0 0 0 0 0 0 0 0 0 0 0 0 -64 -20 -30 -1 -2 -1 -2 -1 0
0 0 0 0 0 0 0 0 0 0 0 0 0 0 0 0 0 0 0 0 0 0 0 0 0 0 0 0 0 0 0 0 0 0 0 0 0 0 0 -1 -1 0 -6
0 0 0 0 0 0 0 0 0 0 0 0 0 0 0 0 0 0 0 0 0 0 0 0 0 0 0 0 0 0 0 0 0 0 -1 0 0 0 0 -1 -1 0 0
0 0 0 0 0 0 0 0 0 0 0 0 0 0 0 0 0 0 0 0 0 0 0 0 0 0 0 0 0 0 0 0 0 0 -1 -1 0 0 0 0 0 0 0
0 0 0 0 0 0 0 0 0 0 0 0 0 0 0 0 0 0 0 0 0 0 0 0 0 0 0 0 0 0 0 0 0 0 -1 0 0 -1 0 0 0 0 0
0 0 0 0 0 0 0 0 0 0 0 0 0 0 0 0 0 0 0 0 0 0 0 0 0 0 0 0 0 0 0 0 0 0 0 0 0 -1 0 0 0 0 0
0 0 0 0 0 0 0 0 0 0 0 0 0 0 0 0 0 0 0 0 0 0 0 0 0 0 0 0 0 0 0 0 0 0 0 0 -1 -1 0 0 -1 0 0
0 0 0 0 0 0 0 0 0 0 0 0 0 0 0 0 0 0 0 0 0 0 0 0 0 0 0 0 0 0 0 0 0 0 0 -1 -1 0 0 0 -1 0 0
0 0 0 0 0 0 0 0 0 0 0 0 0 0 0 0 0 0 0 0 0 0 0 0 0 0 0 0 0 0 0 0 0 0 0 0 0 0 0 0 0 0 0
0 0 0 0 0 0 0 0 0 0 0 0 0 0 0 0 0 0 0 0 0 0 0 0 0 0 0 0 0 0 0 0 0 0 0 0 0 0 0 0 0 0 0
0 0 0 0 0 0 0 0 0 0 0 0 0 0 0 0 0 0 0 0 0 0 0 0 0 0 0 0 0 0 0 0 0 0 0 0 0 0 0 0 0 0 0
0 0 0 0 0 0 0 0 0 0 0 0 0 0 0 0 0 0 0 0 0 0 0 0 0 0 0 0 0 0 0 0 0 0 0 0 0 0 0 0 0 0 0
0 0 0 0 0 0 0 0 0 0 0 0 0 0 0 0 0 0 0 0 0 0 0 0 0 0 0 0 0 0 0 0 0 0 0 0 0 0 0 0 0 0 0
0 0 0 0 0 0 0 0 0 0 0 0 0 0 0 0 0 0 0 0 0 0 0 0 0 0 0 0 0 0 0 0 0 0 0 0 0 0 0 0 0 0 0
0 0 0 0 0 0 0 0 0 0 0 0 0 0 0 0 0 0 0 0 0 0 0 0 0 0 0 0 0 0 0 0 0 0 0 0 0 0 0 0 0 0 0
0 0 0 0 0 0 0 0 0 0 0 0 0 0 0 0 0 0 0 0 0 0 0 0 0 0 0 0 0 0 0 0 0 0 0 0 0 0 0 0 0 0 0
0 0 0 0 0 0 0 0 0 0 0 0 0 0 0 0 0 0 0 0 0 0 -1 -1 0 0 -1 0 0 0 0 0 0 0 0 0 0 0 0 0 0 0 0
0 0 0 0 0 0 0 0 0 0 0 0 0 0 0 0 0 0 0 0 0 0 0 0 0 0 0 0 0 0 0 0 -1 0 0 0 0 0 0 0 0 0 0
0 0 0 0 0 0 0 0 0 0 0 0 0 0 0 0 0 0 0 0 0 0 0 0 0 -1 0 -1 -1 -3 0 0 0 0 0 0 0 0 0 0 0 0 0
0 0 0 0 0 0 0 0 0 0 0 0 0 0 0 0 0 0 0 0 0 0 0 0 0 0 0 0 0 0 0 0 0 0 0 0 0 -4 -1 0 0 0 0
Wind_Speed
26 26 26 27 27 28 27 27 27 28 28 28 29 30 29 30 29 27 27 31 33 34 33 34 31 29 31 32 33 30 28 25 23 21 20 20 19 20 20 20 20 21 21
25 25 26 27 27 27 27 26 27 27 27 28 28 29 30 30 29 27 28 29 30 29 30 32 33 34 35 35 42 36 40 32 30 27 25 22 21 21 22 22 22 21 21
26 24 25 26 26 26 27 27 27 27 27 27 27 28 28 29 27 25 25 23 23 27 28 28 28 30 29 31 32 34 33 25 36 28 24 23 24 25 26 27 27 26 24
25 25 24 25 26 26 26 26 26 26 26 27 28 27 26 28 24 21 22 22 23 24 25 28 29 28 27 27 29 29 30 30 26 31 21 13 22 23 23 25 26 31 29
24 23 24 25 25 25 25 25 25 25 25 27 26 26 26 21 20 22 22 22 23 23 24 26 27 28 27 28 28 29 28 29 28 26 30 25 24 23 24 25 22 21 26
23 23 23 23 23 24 25 26 25 24 26 28 26 26 21 20 21 22 22 23 24 25 25 26 25 26 27 29 29 31 32 28 29 28 29 27 31 28 25 26 28 24 30
22 22 22 23 23 24 25 26 24 25 26 30 25 23 20 21 23 23 22 23 24 25 26 26 26 25 26 28 29 31 32 31 31 30 28 29 30 29 30 28 27 23 22
21 21 21 22 23 23 25 25 25 24 25 28 26 22 24 20 26 22 23 25 24 25 27 26 25 25 25 26 27 28 30 30 30 31 32 32 32 31 28 24 25 24 27
20 20 21 22 23 23 24 24 25 26 27 25 26 24 23 22 27 21 22 25 26 28 28 25 25 24 24 25 27 28 27 29 30 29 29 28 29 27 24 25 27 26 27
18 20 21 22 22 22 23 23 24 25 25 27 24 26 23 22 23 24 21 23 28 28 29 25 23 23 24 25 26 27 27 27 28 29 28 28 28 28 31 30 29 29 27
18 19 20 21 21 22 23 23 24 25 24 24 25 24 24 24 23 24 25 25 30 29 28 26 21 22 24 24 26 28 28 28 28 28 27 27 28 29 31 30 28 30 31
18 19 19 19 20 21 22 22 23 23 24 23 23 24 23 24 25 25 26 29 30 26 31 24 20 23 25 26 27 28 30 29 29 30 28 28 29 30 30 29 30 31 32
16 17 18 19 20 20 21 22 22 22 23 23 23 24 24 24 24 26 27 29 29 28 25 25 22 25 26 28 30 31 31 32 31 31 30 29 30 31 31 30 30 30 31
14 15 17 19 20 21 22 22 23 23 23 23 24 24 24 25 25 26 27 29 31 28 26 23 22 27 29 31 33 32 33 32 33 32 31 30 30 31 32 31 31 32 33
15 15 17 19 20 21 21 22 23 23 23 24 24 24 25 25 25 26 25 26 27 30 30 24 25 29 34 35 34 33 33 33 33 33 32 32 32 33 33 32 32 33 34
16 17 18 20 20 20 20 20 21 21 22 23 23 23 24 24 24 25 24 25 25 26 29 27 28 35 36 35 32 33 32 33 33 31 32 32 31 34 33 30 31 33 34
14 14 15 16 17 18 18 19 20 21 22 22 23 23 23 22 24 24 24 25 25 26 29 32 30 33 35 35 33 33 32 32 31 30 34 31 34 35 32 32 33 35 35
16 15 16 17 17 18 18 19 20 21 22 23 23 24 23 23 24 23 24 25 25 26 28 33 33 33 33 34 36 33 33 31 28 32 31 33 38 34 32 33 37 37 36
17 18 18 17 18 19 20 20 21 22 22 23 23 23 23 23 24 23 24 25 25 27 29 31 35 32 33 34 34 33 32 32 31 31 34 37 33 33 33 37 40 38 38
19 19 19 19 20 20 21 21 21 23 23 23 22 22 22 22 24 24 25 25 26 27 29 31 33 34 34 33 32 34 34 32 36 36 37 32 33 34 39 38 37 38 38
20 20 20 20 21 21 22 22 23 24 25 26 26 25 25 25 24 24 25 26 27 30 30 31 33 34 34 33 33 32 34 35 36 34 32 31 35 36 36 36 35 37 38
20 20 21 21 21 21 21 21 22 25 25 26 27 27 26 26 26 25 25 26 25 28 30 31 32 33 33 31 30 32 35 37 37 29 32 37 34 35 35 34 35 38 41
20 21 22 22 23 24 23 23 23 24 25 25 26 26 26 25 24 25 26 25 26 27 28 30 32 33 33 31 30 33 33 34 35 35 35 38 34 36 34 34 37 39 40
24 24 24 23 24 25 24 25 25 25 26 27 27 27 27 27 24 24 25 25 26 27 27 29 30 30 28 29 29 30 32 33 33 32 31 38 36 37 35 37 39 39 40
26 24 24 24 25 27 26 25 26 27 27 27 28 25 25 26 23 23 25 26 28 29 25 24 26 27 28 30 30 32 34 35 35 34 30 34 32 39 40 38 32 33 36
28 26 26 25 26 27 26 26 24 25 27 29 27 25 25 24 23 22 24 26 30 30 27 28 27 26 26 25 27 30 29 30 33 34 26 30 36 37 39 31 30 37 38
Wind_Direction
344 344 342 340 339 338 338 338 337 336 333 331 328 325 322 321 322 326 324 318 313 313 313 312 309 305 299 295 292 286 280 274 270 268 269 273 277 282 285 288 290 291 291
348 348 346 345 343 343 342 341 338 336 334 334 334 330 320 318 322 325 324 325 325 329 323 317 312 308 304 300 296 288 282 274 274 271 270 269 273 277 281 283 286 288 289
349 351 348 348 346 343 339 338 335 336 336 337 336 334 330 328 334 336 338 344 344 341 339 337 332 327 321 311 308 301 319 306 276 270 259 267 274 279 281 281 282 285 286
351 354 355 354 345 343 344 338 336 338 342 342 339 338 341 334 344 1 356 356 354 352 349 346 342 340 335 329 314 310 311 329 331 345 311 271 283 281 285 286 285 284 279
350 356 355 354 350 350 345 343 343 352 353 349 348 345 335 356 4 2 360 1 2 1 358 352 351 348 345 340 328 318 316 311 313 320 319 314 303 290 286 290 296 291 285
353 353 354 354 351 349 346 345 350 358 358 353 347 345 359 4 6 5 4 3 3 1 357 353 351 351 351 347 341 320 315 318 313 308 308 311 295 298 305 303 288 288 278
355 355 355 349 347 353 352 352 357 357 359 349 351 354 4 6 359 1 5 3 0 357 357 356 352 348 348 347 344 329 314 305 309 310 306 300 300 301 299 299 293 301 301
359 0 356 346 349 353 352 352 354 359 355 348 351 353 345 350 348 358 1 1 359 356 354 354 355 353 353 351 348 344 324 318 313 309 305 303 306 308 306 317 309 309 301
358 358 354 349 351 355 351 352 353 352 346 348 353 352 350 348 345 352 354 355 354 351 350 352 352 351 351 350 348 346 341 325 319 320 321 319 312 319 325 316 315 311 306
360 357 354 351 351 353 351 352 353 349 349 346 348 347 349 348 347 344 350 348 347 347 345 346 349 349 349 349 348 346 344 338 326 324 323 322 319 318 308 308 310 316 312
355 354 353 351 349 347 348 350 348 346 347 348 347 347 346 344 344 340 340 342 341 346 346 344 348 346 346 345 343 341 340 336 331 326 324 320 313 312 310 307 308 304 308
347 349 352 351 350 348 347 346 346 344 346 348 348 347 346 341 339 337 337 336 337 345 343 352 354 348 344 340 338 336 332 330 326 324 324 319 314 311 312 311 311 309 307
347 346 348 347 346 346 344 343 342 342 343 343 343 343 342 339 337 336 334 333 335 338 343 349 352 349 344 340 335 331 328 323 321 320 319 318 314 312 313 311 311 311 309
347 347 345 342 341 340 340 339 338 339 340 339 339 339 337 336 336 335 333 332 331 334 337 338 341 344 341 335 332 330 326 323 319 317 316 316 317 316 313 309 309 309 309
339 339 338 337 336 335 335 335 334 333 334 335 335 335 335 334 335 334 332 332 330 329 330 334 332 332 333 331 329 326 324 322 319 317 316 314 314 313 312 312 310 308 307
328 329 329 330 331 332 334 335 335 335 334 334 334 333 333 334 333 333 332 331 330 326 325 329 327 325 327 328 329 326 324 321 319 317 316 315 316 315 313 313 312 310 309
322 322 324 326 327 329 331 331 331 332 331 330 331 329 328 330 329 329 329 328 327 325 321 323 325 325 325 325 327 325 322 320 319 318 315 315 314 313 312 312 312 310 309
314 313 315 318 321 322 324 325 326 327 327 326 325 325 325 326 325 326 326 325 324 324 322 321 323 323 324 324 322 324 321 319 319 317 316 313 311 313 313 312 311 310 308
306 307 307 307 310 313 317 319 321 323 324 323 323 322 322 323 323 324 324 323 323 324 323 321 321 323 323 324 322 324 321 318 317 317 313 310 312 312 313 311 309 309 308
303 301 299 301 305 309 312 314 316 318 320 321 322 321 321 320 320 321 321 321 321 322 322 321 320 321 320 323 322 321 318 317 313 313 312 313 313 313 311 312 311 310 308
304 301 298 297 299 302 305 306 309 313 315 317 318 319 319 318 318 318 319 319 320 320 321 321 320 320 319 320 319 321 316 314 314 314 315 317 315 315 316 315 314 312 310
306 304 300 297 295 296 298 299 304 308 311 312 314 316 317 316 316 315 316 317 319 320 319 320 320 319 319 320 321 318 314 312 312 320 316 313 317 317 318 319 317 314 311
311 305 304 301 297 296 296 297 299 304 307 309 312 314 316 317 316 316 317 317 317 319 318 319 318 317 317 319 318 315 314 314 312 314 315 312 319 316 320 319 317 315 313
315 311 307 304 302 300 297 296 298 301 303 307 309 311 313 315 315 316 316 315 316 317 318 317 316 317 318 318 316 315 315 314 314 316 319 313 318 317 320 319 317 316 315
321 316 312 307 304 304 301 296 297 300 300 305 310 309 311 313 313 313 313 314 316 317 320 319 318 317 316 316 316 316 314 313 313 318 323 319 323 319 319 320 323 323 321
325 322 316 312 308 306 305 300 297 301 302 306 309 307 309 311 312 312 311 313 314 317 319 320 319 318 317 319 318 316 316 316 317 320 329 325 323 326 323 325 326 322 321